Location: Cutler
(25.6150°N, 80.3110°W)
Time: 15:47:07
(UTC-05:00)

OTV 5 (USA 277) - Visible Passes

Search period start: 20 November 2017 00:00
Search period end: 30 November 2017 00:00
Orbit: 404 x 417 km, 43.0° (Epoch: 07 September)

Date Brightness Start Highest point End Pass type
(mag) Time Alt. Az. Time Alt. Az. Time Alt. Az.
21 Nov ? 05:44:28 15° NNW 05:46:43 31° NNE 05:49:41 10° E visible
22 Nov ? 04:56:03 19° NE 04:56:03 19° NE 04:58:04 10° E visible
23 Nov ? 05:40:29 30° WNW 05:41:55 73° SW 05:45:10 10° SE visible
24 Nov ? 04:52:12 30° ESE 04:52:12 30° ESE 04:54:06 10° ESE visible
25 Nov ? 05:36:45 19° SW 05:36:56 19° SW 05:39:22 10° S visible
26 Nov ? 04:48:33 13° SSE 04:48:33 13° SSE 04:49:00 10° SSE visible
26 Nov ? 19:40:58 10° SW 19:41:13 12° SW 19:41:13 12° SW visible
27 Nov ? 18:50:19 10° SSW 18:52:59 28° SSE 18:52:59 28° SSE visible
28 Nov ? 18:00:09 10° S 18:02:18 16° SE 18:04:28 10° E visible
28 Nov ? 19:36:14 10° WSW 19:37:30 20° W 19:37:30 20° W visible
29 Nov ? 18:44:58 10° WSW 18:48:19 74° NW 18:49:09 47° NE visible
